Location: Maccacari
(45.1333°N, 11.1333°E)
Time: 01:39:04
(UTC+00:00)

A-11 Canister half - Pass Details

Date: 25 January 2021
Orbit: 1525 x 1684 km, 47.3° (Epoch: 07 March)

Event Time Altitude Azimuth Distance (km) Brightness Sun altitude
Rises 16:09:37 0° 269° (W) 4,692 12.9 -0.3°
Reaches altitude 10° 16:12:38 10° 271° (W) 3,722 12.3 -0.7°
Maximum altitude 16:22:06 79° 359° (N) 1,606 9.2 -2.2°
Drops below altitude 10° 16:31:54 10° 86° (E) 3,842 10.5 -3.8°
Enters shadow 16:34:28 - 88° (E) 4,659 10.9 -4.2°
Sets 16:35:04 0° 88° (E) 4,850 - -4.3°
